#timestamp,LO_Frequency,Hit,Temp,Hum 
1479891615.6,286047067.2,N,0.0,0.0
1479891635.4,286047067.2,N,0.0,0.0
1479891655.2,286047067.3,N,0.0,0.0
1479891675.1,286047066.9,N,0.0,0.0
1479891676.0,286047066.9,N,0.0,0.0
1479891695.8,286047069.5,N,0.0,0.0
1479891715.6,286047069.3,N,0.0,0.0
1479891735.5,286047071.5,N,0.0,0.0
1479891755.3,286047068.9,N,0.0,0.0
1479891775.2,286047068.9,N,0.0,0.0
1479891795.9,286047071.0,N,0.0,0.0
1479891815.7,286047071.0,N,0.0,0.0
1479891835.6,286047073.2,N,0.0,0.0
1479891855.4,286047070.3,N,0.0,0.0
1479891875.3,286047070.4,N,0.0,0.0
1479891895.1,286047070.4,N,0.0,0.0
1479891896.0,286047070.4,N,0.0,0.0
1479891915.8,286047073.2,N,0.0,0.0
1479891935.7,286047072.8,N,0.0,0.0
1479891955.5,286047072.0,N,0.0,0.0
1479891975.3,286047072.0,N,0.0,0.0
1479891995.2,286047072.5,N,0.0,0.0
1479892015.0,286047072.3,N,0.0,0.0
1479892015.9,286047072.3,N,0.0,0.0
1479892035.8,286047072.5,N,0.0,0.0
1479892055.6,286047072.7,N,0.0,0.0
1479892075.4,286047072.3,N,0.0,0.0
1479892095.3,286047072.5,N,0.0,0.0
1479892115.1,286047072.7,N,0.0,0.0
1479892135.9,286047072.6,N,0.0,0.0
1479892155.7,286047074.7,N,0.0,0.0
1479892175.5,286047073.3,N,0.0,0.0
1479892195.4,286047073.8,N,0.0,0.0
1479892215.2,286047073.5,N,0.0,0.0
1479892235.0,286047073.5,N,0.0,0.0
1479892235.9,286047073.5,N,0.0,0.0
1479892255.8,286047073.5,N,0.0,0.0
1479892275.6,286047074.7,N,0.0,0.0
1479892295.5,286047074.0,N,0.0,0.0
1479892315.3,286047074.1,N,0.0,0.0
1479892335.1,286047072.2,N,0.0,0.0
1479892355.9,286047073.1,N,0.0,0.0
1479892375.7,286047070.7,N,0.0,0.0
1479892395.5,286047070.4,N,0.0,0.0
1479892415.4,286047070.8,N,0.0,0.0
1479892435.2,286047071.6,N,0.0,0.0
1479892455.1,286047069.0,N,0.0,0.0
1479892456.0,286047069.0,N,0.0,0.0
1479892475.8,286047068.7,N,0.0,0.0
1479892495.6,286047068.7,N,0.0,0.0
1479892515.5,286047069.0,N,0.0,0.0
1479892535.3,286047068.7,N,0.0,0.0
1479892555.2,286047069.1,N,0.0,0.0
1479892575.9,286047069.5,N,0.0,0.0
1479892595.7,286047067.2,N,0.0,0.0
1479892615.6,286047067.2,N,0.0,0.0
1479892635.4,286047067.8,N,0.0,0.0
1479892655.2,286047068.0,N,0.0,0.0
1479892675.1,286047068.3,N,0.0,0.0
1479892676.0,286047068.3,N,0.0,0.0
1479892695.8,286047066.0,N,0.0,0.0
1479892715.7,286047065.3,N,0.0,0.0
1479892735.5,286047065.8,N,0.0,0.0
1479892755.3,286047068.1,N,0.0,0.0
1479892775.2,286047067.4,N,0.0,0.0
1479892795.0,286047067.4,N,0.0,0.0
1479892795.9,286047067.4,N,0.0,0.0
1479892815.8,286047067.6,N,0.0,0.0
1479892835.6,286047068.4,N,0.0,0.0
1479892855.4,286047065.9,N,0.0,0.0
1479892875.3,286047066.1,N,0.0,0.0
1479892895.1,286047065.7,N,0.0,0.0
1479892915.8,286047065.4,N,0.0,0.0
1479892935.7,286047065.8,N,0.0,0.0
1479892955.5,286047066.4,N,0.0,0.0
1479892975.4,286047063.9,N,0.0,0.0
1479892995.2,286047065.0,N,0.0,0.0
1479893015.0,286047063.8,N,0.0,0.0
1479893015.9,286047063.8,N,0.0,0.0
1479893035.8,286047066.4,N,0.0,0.0
1479893055.6,286047064.0,N,0.0,0.0
1479893075.4,286047064.9,N,0.0,0.0
1479893095.3,286047062.2,N,0.0,0.0
1479893115.1,286047063.6,N,0.0,0.0
1479893135.9,286047061.7,N,0.0,0.0
1479893155.7,286047061.2,N,0.0,0.0
1479893175.5,286047060.9,N,0.0,0.0
1479893195.4,286047063.1,N,0.0,0.0
1479893215.2,286047060.9,N,0.0,0.0
1479893235.0,286047060.9,N,0.0,0.0
1479893236.0,286047060.9,N,0.0,0.0
1479893255.8,286047061.6,N,0.0,0.0
1479893275.6,286047059.6,N,0.0,0.0
1479893295.5,286047059.3,N,0.0,0.0
1479893315.3,286047061.2,N,0.0,0.0
1479893335.1,286047063.5,N,0.0,0.0
1479893355.9,286047059.0,N,0.0,0.0
1479893375.7,286047059.0,N,0.0,0.0
1479893395.6,286047061.6,N,0.0,0.0
1479893415.4,286047059.0,N,0.0,0.0
1479893435.2,286047059.6,N,0.0,0.0
1479893455.1,286047060.2,N,0.0,0.0
1479893456.0,286047060.2,N,0.0,0.0
1479893475.8,286047059.9,N,0.0,0.0
1479893495.6,286047060.4,N,0.0,0.0
1479893515.5,286047058.6,N,0.0,0.0
1479893535.3,286047055.7,N,0.0,0.0
1479893555.2,286047058.5,N,0.0,0.0
1479893575.9,286047056.2,N,0.0,0.0
1479893595.7,286047056.3,N,0.0,0.0
1479893615.6,286047056.5,N,0.0,0.0
1479893635.4,286047054.5,N,0.0,0.0
1479893655.2,286047055.3,N,0.0,0.0
1479893675.1,286047054.4,N,0.0,0.0
1479893676.0,286047054.4,N,0.0,0.0
1479893695.8,286047055.4,N,0.0,0.0
1479893715.7,286047055.5,N,0.0,0.0
1479893735.5,286047053.0,N,0.0,0.0
1479893755.3,286047053.5,N,0.0,0.0
1479893775.2,286047053.2,N,0.0,0.0
1479893795.0,286047053.0,N,0.0,0.0
1479893795.9,286047053.0,N,0.0,0.0
1479893815.8,286047053.8,N,0.0,0.0
1479893835.6,286047053.4,N,0.0,0.0
1479893855.4,286047053.8,N,0.0,0.0
1479893875.3,286047053.9,N,0.0,0.0
1479893895.1,286047051.3,N,0.0,0.0
1479893915.9,286047053.2,N,0.0,0.0
1479893935.7,286047052.8,N,0.0,0.0
1479893955.5,286047053.9,N,0.0,0.0
1479893975.4,286047051.5,N,0.0,0.0
1479893995.2,286047052.0,N,0.0,0.0
1479894015.0,286047051.5,N,0.0,0.0
1479894015.9,286047051.5,N,0.0,0.0
1479894035.8,286047051.0,N,0.0,0.0
1479894055.6,286047054.0,N,0.0,0.0
1479894075.5,286047051.0,N,0.0,0.0
1479894095.3,286047051.8,N,0.0,0.0
1479894115.1,286047050.2,N,0.0,0.0
1479894135.9,286047047.9,N,0.0,0.0
1479894155.7,286047048.4,N,0.0,0.0
1479894175.5,286047048.4,N,0.0,0.0
1479894195.4,286047048.6,N,0.0,0.0
1479894215.2,286047048.6,N,0.0,0.0
1479894235.1,286047050.6,N,0.0,0.0
1479894236.0,286047050.6,N,0.0,0.0
1479894255.8,286047047.9,N,0.0,0.0
1479894275.6,286047049.0,N,0.0,0.0
1479894295.5,286047048.9,N,0.0,0.0
1479894315.3,286047046.1,N,0.0,0.0
1479894335.2,286047046.3,N,0.0,0.0
1479894355.9,286047048.7,N,0.0,0.0
1479894375.7,286047046.2,N,0.0,0.0
1479894395.6,286047046.3,N,0.0,0.0
1479894415.4,286047047.3,N,0.0,0.0
1479894435.2,286047047.0,N,0.0,0.0
1479894455.1,286047044.6,N,0.0,0.0
1479894456.0,286047044.6,N,0.0,0.0
1479894475.8,286047045.0,N,0.0,0.0
1479894495.7,286047047.6,N,0.0,0.0
1479894515.5,286047045.2,N,0.0,0.0
1479894535.3,286047043.4,N,0.0,0.0
1479894555.2,286047044.4,N,0.0,0.0
1479894575.0,286047041.5,N,0.0,0.0
1479894575.9,286047041.5,N,0.0,0.0
1479894595.8,286047044.4,N,0.0,0.0
1479894615.6,286047041.9,N,0.0,0.0
1479894635.4,286047041.9,N,0.0,0.0
1479894655.3,286047042.6,N,0.0,0.0
1479894675.1,286047042.6,N,0.0,0.0
1479894695.9,286047039.7,N,0.0,0.0
1479894715.7,286047042.3,N,0.0,0.0
1479894735.5,286047042.0,N,0.0,0.0
1479894755.4,286047042.7,N,0.0,0.0
1479894775.2,286047040.1,N,0.0,0.0
1479894795.0,286047040.4,N,0.0,0.0
1479894796.0,286047040.4,N,0.0,0.0
1479894815.8,286047040.8,N,0.0,0.0
1479894835.6,286047038.2,N,0.0,0.0
1479894855.5,286047038.6,N,0.0,0.0
1479894875.3,286047038.7,N,0.0,0.0
1479894895.1,286047038.4,N,0.0,0.0
1479894915.9,286047038.7,N,0.0,0.0
1479894935.7,286047039.4,N,0.0,0.0
1479894955.6,286047039.6,N,0.0,0.0
1479894975.4,286047039.2,N,0.0,0.0
1479894995.2,286047039.4,N,0.0,0.0
1479895015.1,286047039.2,N,0.0,0.0
1479895016.0,286047039.2,N,0.0,0.0
1479895035.8,286047039.2,N,0.0,0.0
1479895055.6,286047039.5,N,0.0,0.0
1479895075.5,286047039.1,N,0.0,0.0
1479895095.3,286047039.1,N,0.0,0.0
1479895115.2,286047038.8,N,0.0,0.0
1479895135.9,286047038.1,N,0.0,0.0
1479895155.7,286047041.2,N,0.0,0.0
1479895175.6,286047040.3,N,0.0,0.0
1479895195.4,286047040.4,N,0.0,0.0
